Lid_Strength_Index
-0 0 0 -0 1 0 0 1 2 6 6 3 3 1 2 1 1 1 2 2 2 3 3 3 2 2 1 1 0 0 -0 -0 -1 -2 -1 -1 -1 -2
0 0 0 0 -0 -0 0 0 1 3 5 2 2 2 2 1 1 2 2 2 3 3 3 3 3 2 2 2 1 1 -0 0 -2 -2 -1 -1 -0 -0
1 1 1 0 0 0 1 1 2 2 4 3 2 1 2 2 2 2 2 2 2 3 3 3 3 3 2 2 1 1 1 -0 -1 -0 0 1 1 2
1 1 1 1 1 1 1 1 2 1 3 4 3 2 2 2 2 1 1 1 1 2 3 3 3 3 3 3 3 3 2 1 1 2 2 2 2 3
1 1 1 1 1 1 1 2 1 1 2 3 3 2 2 2 2 1 1 1 -0 2 3 4 4 4 4 4 3 3 4 4 5 4 4 3 4 4
1 0 1 1 1 1 1 1 2 2 2 3 3 3 2 2 2 2 3 1 1 1 2 3 3 5 4 2 3 4 6 6 6 6 6 6 6 6
1 1 0 2 3 1 1 1 2 2 2 3 3 3 3 3 3 3 3 2 2 1 2 2 2 2 4 3 4 5 6 6 6 6 6 7 7 8
1 1 1 1 4 5 4 3 2 2 3 3 3 4 3 2 2 4 4 4 4 1 2 1 -0 1 3 3 6 6 6 6 6 7 7 7 8 8
1 1 1 1 2 1 6 6 5 6 4 2 3 3 3 1 2 2 1 2 2 0 0 1 -0 2 3 5 6 7 7 7 7 7 7 8 9 9
0 0 1 1 1 1 1 1 1 1 2 2 2 2 1 1 0 0 0 0 0 -0 -1 2 1 3 3 4 6 7 7 7 7 7 8 9 9 8
0 0 0 1 7 6 1 1 2 3 5 6 5 6 6 5 2 -0 1 2 2 1 -0 1 1 2 4 5 6 7 7 7 8 8 9 9 9 10
1 0 7 2 8 7 1 1 3 2 2 2 1 5 3 2 5 -1 0 2 2 2 0 1 1 2 4 4 5 6 6 7 8 9 9 9 10 6
1 1 1 10 9 7 4 1 1 1 2 1 0 0 -0 -0 -1 -1 -1 0 2 2 0 -0 1 1 1 3 3 3 3 6 6 8 9 9 10 10
1 1 3 10 10 7 4 9 8 4 0 1 1 1 1 0 -0 -1 -3 -1 -2 -1 -1 -2 1 1 1 2 4 4 5 4 5 5 5 7 9 9
0 5 10 11 11 8 10 9 7 0 1 1 1 1 0 -0 -1 -1 -1 -1 -1 -1 -1 -2 -1 -0 1 3 5 6 6 5 5 5 5 6 6 6
6 2 3 5 8 4 5 5 0 0 1 1 1 0 -0 0 0 -0 0 0 1 2 1 1 1 1 3 5 5 7 6 7 5 5 6 6 6 6
1 0 1 1 1 1 1 0 0 0 1 0 1 1 1 1 1 -0 0 0 2 4 5 4 3 3 5 5 7 7 7 7 6 6 7 7 6 6
1 1 2 1 1 1 1 1 0 1 0 0 0 1 1 1 1 0 0 1 2 4 6 5 5 7 7 7 9 7 7 7 8 7 7 8 8 6
1 1 1 1 1 1 1 1 1 0 -0 0 0 0 0 1 1 1 1 2 2 3 5 6 7 8 10 10 10 12 8 8 9 8 8 8 9 7
1 1 1 1 1 1 1 1 1 0 0 0 0 1 0 1 1 2 2 1 2 3 4 6 7 6 7 7 9 11 14 9 10 9 9 8 8 9
1 1 1 1 1 1 1 0 0 0 1 0 1 0 1 1 1 1 1 6 5 3 5 7 7 13 7 8 10 11 11 13 11 10 10 11 9 8
1 1 0 0 0 0 0 0 0 1 0 1 1 0 0 1 1 1 1 1 2 4 7 7 7 7 8 11 11 10 11 10 12 12 12 12 11 11
1 0 0 0 0 0 0 0 0 0 0 0 0 1 0 1 1 0 1 1 3 5 7 10 10 10 11 11 11 10 10 10 9 11 10 12 11 10